Location: Bohy
(49.9380°N, 13.5753°E)
Time: 05:39:48
(UTC+00:00)

Lacrosse 5 rocket - Pass Details

Date: 19 May 2025
Orbit: 419 x 516 km, 57.0° (Epoch: 14 June)

Event Time Altitude Azimuth Distance (km) Brightness Sun altitude
Rises 19:43:57 0° 303° (WNW) 2,504 6.8 -7.5°
Reaches altitude 10° 19:46:08 10° 303° (WNW) 1,606 5.3 -7.8°
Maximum altitude 19:49:44 90° 251° (WSW) 453 0.9 -8.2°
Enters shadow 19:52:58 12° 125° (SE) 1,453 2.8 -8.6°
